Regional Weather Roundup
Issued by NWS

Home | Current Version | Previous Version | Graphics & Text | Print | Product List | Glossary On
Versions: 1 2 3 4 5 6 7 8 9 10 11 12 13 14 15 16 17 18 19 20 21 22 23 24 25 26 27 28 29 30 31 32 33 34 35 36 37 38 39 40 41 42 43 44 45 46 47 48 49 50
892
ASUS43 KFSD 221002
RWRSD

WEATHER ROUNDUP FOR SOUTH DAKOTA
NATIONAL WEATHER SERVICE SIOUX FALLS SD
400 AM CST WED FEB 22 2017

NOTE: "FAIR" INDICATES FEW OR NO CLOUDS BELOW 12,000 FEET WITH NO
SIGNIFICANT WEATHER AND/OR OBSTRUCTIONS TO VISIBILITY.


SDZ001>005-009-010-012>017-221100-
NORTHWEST AND NORTH CENTRAL SOUTH DAKOTA

CITY           SKY/WX    TMP DP  RH WIND       PRES   REMARKS
BUFFALO          N/A     38  34  85 NW14      29.62R
FAITH            N/A     41  37  86 SW12      29.62R
MOBRIDGE       CLOUDY    39  33  79 N8        29.60R
$$

SDZ012>016-024>037-041>051-057-063-072>074-221100-
SOUTHWEST AND SOUTH CENTRAL SOUTH DAKOTA

CITY           SKY/WX    TMP DP  RH WIND       PRES   REMARKS
RAPID CTY ARPT MOCLDY    42  36  79 S6        29.68S
PIERRE         CLOUDY    43  37  79 S5        29.62F
CUSTER         CLOUDY    36  32  85 W7        29.75F
ELLSWORTH AFB  CLOUDY    43  36  76 NE6       29.68S
PHILIP         MOCLDY    50  38  63 W14       29.63R
PINE RIDGE     MOCLDY    40  38  93 S9        29.74F
SPEARFISH      FAIR      46  32  57 SW20G31   29.68F
WINNER         FAIR      48  34  58 SW10      29.69R
$$

SDZ004>011-016>023-039-040-221100-
NORTHEAST SOUTH DAKOTA

CITY           SKY/WX    TMP DP  RH WIND       PRES   REMARKS
ABERDEEN       PTCLDY    37  33  85 N7        29.60F
WATERTOWN      CLOUDY    37  36  96 SW5       29.59S
BROOKINGS      CLOUDY    42  36  79 S7        29.58F
SISSETON         N/A     34  33  96 N7        29.60R WCI  28
$$

SDZ017-020-022-023-036>040-048>070-221100-
SOUTHEAST SOUTH DAKOTA

CITY           SKY/WX    TMP DP  RH WIND       PRES   REMARKS
SIOUX FALLS    CLOUDY    41  36  82 NE3       29.62F
HURON          CLOUDY    38  37  97 W5        29.61R
CHAMBERLAIN    MOCLDY    43  39  84 SW3       29.66R
MITCHELL       CLOUDY    38  34  85 W9        29.62S
YANKTON        PTCLDY    52  32  46 SW3       29.62F
$$

ABBREVIATIONS USED IN REMARKS
   TC - TEMPERATURE IN CELSIUS
  WCI - WIND CHILL INDEX
   HX - HEAT INDEX
  VSB - VISIBILITY





USA.gov is the U.S. government's official web portal to all federal, state and local government web resources and services.